Regional Weather Roundup
Issued by NWS

Home | Current Version | Previous Version | Graphics & Text | Print | Product List | Glossary On
Versions: 1 2 3 4 5 6 7 8 9 10 11 12 13 14 15 16 17 18 19 20 21 22 23 24 25 26 27 28 29 30 31 32 33 34 35 36 37 38 39 40 41 42 43 44 45 46 47 48 49 50
000
ASUS43 KLSX 281307
RWRMO

WEATHER SUMMARY FOR MISSOURI
NATIONAL WEATHER SERVICE SPRINGFIELD MO
800 AM CDT FRI AUG 28 2015

NOTE: "FAIR" INDICATES FEW OR NO CLOUDS BELOW 12,000 FEET WITH NO
       SIGNIFICANT WEATHER AND/OR OBSTRUCTIONS TO VISIBILITY.
       CURRENT SKY AND/OR WEATHER CONDITIONS ARE NOT AVAILABLE FOR
       CHILLICOTHE AND FARMINGTON.

MOZ001>031-035>038-043-044-053-054-281400-
...NORTHERN AND WESTERN MISSOURI...

CITY           SKY/WX    TMP DP  RH WIND       PRES   REMARKS
KANSAS CTY INT CLOUDY    69  63  81 S14       29.94F
KANSAS C DTWN  CLOUDY    71  64  78 S10       29.96R
LEE`S SUMMIT   CLOUDY    68  63  84 S10       29.98R
ST JOSEPH      LGT RAIN  69  65  86 S10       29.92F
CHILLICOTHE      N/A     67  62  84 S8        29.99S
KIRKSVILLE     CLOUDY    64  59  83 SE8       30.04S

$$
MOZ066>068-077>081-088>096-101>105-281400-
...SOUTHWEST MISSOURI...

CITY           SKY/WX    TMP DP  RH WIND       PRES   REMARKS
SPRINGFIELD    MOSUNNY   64  58  80 S12       30.08R
JOPLIN         PTSUNNY   68  61  78 S12       30.04R

$$
MOZ032>034-039>042-045>050-055>058-069>072-281400-
...CENTRAL MISSOURI...

CITY           SKY/WX    TMP DP  RH WIND       PRES   REMARKS
COLUMBIA       PTSUNNY   63  60  90 SE8       30.07F
JEFFERSON CITY PTSUNNY   64  59  83 E8        30.07F
ROLLA          PTSUNNY   62  58  86 S7        30.09F
SEDALIA        CLOUDY    67  59  75 S12       30.05S
WHITEMAN AFB   PTSUNNY   67  59  77 S13       30.00F
WARRENSBURG    CLOUDY    64  61  88 CALM      30.00S
OSAGE BEACH    CLOUDY    61  55  82 SE3       30.08S

$$
MOZ051-052-059>065-281400-
...EAST CENTRAL MISSOURI...

CITY           SKY/WX    TMP DP  RH WIND       PRES   REMARKS
ST LOUIS INTL  PTSUNNY   67  60  78 SE5       30.12S
SPIRIT OF STL  PTSUNNY   62  60  93 CALM      30.10S
ST CHARLES     PTSUNNY   64  62  93 E3        30.11S

$$
MOZ072>076-082>087-097>100-106>115-281400-
...SOUTH CENTRAL AND SOUTHEAST MISSOURI...

CITY           SKY/WX    TMP DP  RH WIND       PRES   REMARKS
CAPE GIRARDEAU SUNNY     61  60  97 CALM      30.12S
FARMINGTON     SUNNY     57  55  94 E6        30.15R
POPLAR BLUFF   SUNNY     64  60  87 NE3       30.10R
WEST PLAINS    MOSUNNY   60  57  89 CALM      30.13R

$$



USA.gov is the U.S. government's official web portal to all federal, state and local government web resources and services.